TimeEST,TemperatureF,Dew PointF,Humidity,Sea Level PressureIn,VisibilityMPH,Wind Direction,Wind SpeedMPH,Gust SpeedMPH,PrecipitationIn,Events,Conditions,WindDirDegrees,DateUTC
12:15 AM,21.2,12.2,68,30.32,10.0,Calm,Calm,-,N/A,,Clear,0,2013-11-17 05:15:00
12:35 AM,24.8,23.0,93,30.32,10.0,Calm,Calm,-,N/A,,Clear,0,2013-11-17 05:35:00
12:55 AM,21.2,17.6,86,30.32,10.0,Calm,Calm,-,N/A,,Clear,0,2013-11-17 05:55:00
1:15 AM,23.0,15.8,74,30.31,10.0,Calm,Calm,-,N/A,,Clear,0,2013-11-17 06:15:00
1:35 AM,23.0,21.2,93,30.31,10.0,Calm,Calm,-,N/A,,Partly Cloudy,0,2013-11-17 06:35:00
1:55 AM,24.8,17.6,74,30.31,10.0,Calm,Calm,-,N/A,,Mostly Cloudy,0,2013-11-17 06:55:00
2:15 AM,26.6,23.0,86,30.31,10.0,Calm,Calm,-,N/A,,Overcast,0,2013-11-17 07:15:00
2:35 AM,28.4,24.8,86,30.31,10.0,West,3.5,-,N/A,,Overcast,270,2013-11-17 07:35:00
2:55 AM,28.4,23.0,80,30.31,5.0,Calm,Calm,-,N/A,,Overcast,0,2013-11-17 07:55:00
3:15 AM,30.2,28.4,93,30.31,0.2,Calm,Calm,-,N/A,,Overcast,0,2013-11-17 08:15:00
3:35 AM,30.2,26.6,86,30.30,0.2,Calm,Calm,-,N/A,,Overcast,0,2013-11-17 08:35:00
3:55 AM,32.0,28.4,87,30.31,0.2,Calm,Calm,-,N/A,,Overcast,0,2013-11-17 08:55:00
4:15 AM,32.0,30.2,93,30.31,0.2,Calm,Calm,-,N/A,,Overcast,0,2013-11-17 09:15:00
4:35 AM,32.0,28.4,87,30.31,0.2,West,3.5,-,N/A,,Overcast,270,2013-11-17 09:35:00
4:55 AM,33.8,30.2,87,30.31,0.2,Calm,Calm,-,N/A,,Overcast,0,2013-11-17 09:55:00
5:15 AM,33.8,33.8,100,30.31,0.2,Calm,Calm,-,N/A,,Overcast,0,2013-11-17 10:15:00
5:35 AM,33.8,30.2,87,30.31,0.2,Calm,Calm,-,N/A,,Overcast,0,2013-11-17 10:35:00
5:55 AM,33.8,30.2,87,30.32,0.5,WSW,3.5,-,N/A,,Overcast,250,2013-11-17 10:55:00
6:15 AM,35.6,33.8,93,30.31,0.8,NE,5.8,-,N/A,,Overcast,50,2013-11-17 11:15:00
6:35 AM,33.8,32.0,93,30.33,0.5,Calm,Calm,-,N/A,,Overcast,0,2013-11-17 11:35:00
6:55 AM,35.6,30.2,81,30.32,0.8,Calm,Calm,-,N/A,,Overcast,0,2013-11-17 11:55:00
7:15 AM,35.6,30.2,81,30.32,1.0,Calm,Calm,-,N/A,,Overcast,0,2013-11-17 12:15:00
7:35 AM,35.6,33.8,93,30.31,1.2,Calm,Calm,-,N/A,,Overcast,0,2013-11-17 12:35:00
7:55 AM,37.4,33.8,87,30.30,1.5,North,3.5,-,N/A,,Overcast,10,2013-11-17 12:55:00
8:15 AM,37.4,33.8,87,30.31,1.8,Calm,Calm,-,N/A,,Overcast,0,2013-11-17 13:15:00
8:35 AM,39.2,35.6,87,30.31,1.5,North,4.6,-,N/A,,Overcast,10,2013-11-17 13:35:00
8:55 AM,39.2,35.6,87,30.32,2.0,Calm,Calm,-,N/A,,Overcast,0,2013-11-17 13:55:00
9:15 AM,39.2,37.4,93,30.32,3.0,NW,3.5,-,N/A,,Overcast,310,2013-11-17 14:15:00
9:35 AM,41.0,39.2,93,30.31,3.0,NNE,5.8,-,N/A,,Overcast,20,2013-11-17 14:35:00
9:55 AM,41.0,39.2,93,30.31,3.0,North,4.6,-,N/A,,Overcast,360,2013-11-17 14:55:00
10:15 AM,42.8,37.4,81,30.29,4.0,NE,4.6,-,N/A,,Overcast,50,2013-11-17 15:15:00
10:35 AM,42.8,39.2,87,30.29,5.0,Calm,Calm,-,N/A,,Overcast,0,2013-11-17 15:35:00
10:55 AM,44.6,39.2,81,30.28,5.0,Calm,Calm,-,N/A,,Overcast,0,2013-11-17 15:55:00
11:15 AM,44.6,39.2,81,30.27,5.0,Calm,Calm,-,N/A,,Overcast,0,2013-11-17 16:15:00
11:35 AM,44.6,39.2,81,30.26,6.0,North,5.8,-,N/A,,Overcast,360,2013-11-17 16:35:00
11:55 AM,44.6,41.0,87,30.26,6.0,North,3.5,-,N/A,,Overcast,360,2013-11-17 16:55:00
12:15 PM,44.6,41.0,87,30.25,5.0,Calm,Calm,-,N/A,,Overcast,0,2013-11-17 17:15:00
12:35 PM,46.4,42.8,87,30.24,6.0,NE,4.6,-,N/A,,Overcast,50,2013-11-17 17:35:00
12:55 PM,46.4,41.0,81,30.24,7.0,Calm,Calm,-,N/A,,Overcast,0,2013-11-17 17:55:00
1:15 PM,46.4,42.8,87,30.22,5.0,NE,3.5,-,N/A,,Overcast,40,2013-11-17 18:15:00
1:35 PM,46.4,42.8,87,30.22,1.8,NE,4.6,-,N/A,,Overcast,40,2013-11-17 18:35:00
1:55 PM,46.4,44.6,93,30.21,4.0,NNE,4.6,-,N/A,,Overcast,30,2013-11-17 18:55:00
2:15 PM,46.4,42.8,87,30.21,3.0,NNE,4.6,-,N/A,,Overcast,20,2013-11-17 19:15:00
2:35 PM,46.4,42.8,87,30.20,3.0,NE,4.6,-,N/A,,Overcast,50,2013-11-17 19:35:00
2:55 PM,46.4,42.8,87,30.19,2.5,ENE,4.6,-,N/A,,Overcast,60,2013-11-17 19:55:00
3:15 PM,46.4,42.8,87,30.18,3.0,NE,5.8,-,N/A,,Overcast,50,2013-11-17 20:15:00
3:35 PM,46.4,42.8,87,30.18,4.0,NE,3.5,-,N/A,,Overcast,50,2013-11-17 20:35:00
3:55 PM,46.4,44.6,93,30.17,5.0,Calm,Calm,-,N/A,,Overcast,0,2013-11-17 20:55:00
4:15 PM,46.4,42.8,87,30.16,5.0,NE,4.6,-,N/A,,Overcast,40,2013-11-17 21:15:00
4:35 PM,46.4,42.8,87,30.15,5.0,NE,4.6,-,N/A,,Overcast,50,2013-11-17 21:35:00
4:55 PM,46.4,42.8,87,30.16,5.0,Calm,Calm,-,N/A,,Overcast,0,2013-11-17 21:55:00
5:15 PM,46.4,44.6,93,30.15,7.0,East,4.6,-,N/A,,Overcast,80,2013-11-17 22:15:00
5:35 PM,46.4,44.6,93,30.13,10.0,Calm,Calm,-,N/A,,Overcast,0,2013-11-17 22:35:00
5:55 PM,46.4,42.8,87,30.12,6.0,NE,3.5,-,N/A,,Overcast,40,2013-11-17 22:55:00
6:15 PM,46.4,44.6,93,30.10,2.5,ENE,3.5,-,0.01,,Overcast,60,2013-11-17 23:15:00
6:35 PM,46.4,44.6,93,30.08,2.0,ENE,3.5,-,0.01,,Overcast,70,2013-11-17 23:35:00
6:55 PM,46.4,42.8,87,30.07,1.8,NE,4.6,-,0.01,,Overcast,50,2013-11-17 23:55:00
7:15 PM,46.4,44.6,93,30.06,1.5,ENE,4.6,-,0.01,,Overcast,60,2013-11-18 00:15:00
7:35 PM,48.2,44.6,87,30.06,2.5,East,3.5,-,0.03,,Overcast,80,2013-11-18 00:35:00
7:55 PM,48.2,44.6,87,30.05,3.0,Calm,Calm,-,0.03,,Overcast,0,2013-11-18 00:55:00
8:15 PM,48.2,44.6,87,30.04,2.0,Calm,Calm,-,0.01,,Overcast,0,2013-11-18 01:15:00
8:35 PM,46.4,46.4,100,30.03,1.2,Calm,Calm,-,0.02,,Overcast,0,2013-11-18 01:35:00
8:55 PM,46.4,44.6,93,30.02,1.2,North,4.6,-,0.03,,Overcast,10,2013-11-18 01:55:00
9:15 PM,48.2,44.6,87,30.01,2.5,North,5.8,-,0.01,,Overcast,10,2013-11-18 02:15:00
9:35 PM,46.4,44.6,93,29.99,1.0,Calm,Calm,-,0.01,,Overcast,0,2013-11-18 02:35:00
9:55 PM,48.2,46.4,93,29.97,0.8,Calm,Calm,-,0.01,,Overcast,0,2013-11-18 02:55:00
10:15 PM,48.2,44.6,87,29.96,0.8,Calm,Calm,-,0.01,,Overcast,0,2013-11-18 03:15:00
10:35 PM,46.4,44.6,93,29.94,0.5,Calm,Calm,-,0.01,,Overcast,0,2013-11-18 03:35:00
10:55 PM,51.8,48.2,88,29.93,0.5,SSE,4.6,-,0.01,,Overcast,160,2013-11-18 03:55:00
11:15 PM,51.8,50.0,94,29.92,0.8,SE,6.9,-,N/A,,Overcast,140,2013-11-18 04:15:00
11:35 PM,51.8,48.2,88,29.90,0.5,SSE,8.1,-,N/A,,Overcast,160,2013-11-18 04:35:00
11:55 PM,51.8,48.2,88,29.88,0.5,SSE,5.8,-,N/A,,Overcast,150,2013-11-18 04:55:00